Location: Glass Lake
(42.6301°N, 73.5309°W)
Time: 11:50:11
(UTC+00:00)

ISS - Visible Passes

Search period start: 10 October 2024 00:00
Search period end: 20 October 2024 00:00
Orbit: 412 x 424 km, 51.6° (Epoch: 10 October)

Date Brightness Start Highest point End Pass type
(mag) Time Alt. Az. Time Alt. Az. Time Alt. Az.
14 Oct -0.7 10:35:05 10° SSE 10:36:54 14° SE 10:38:44 10° E visible
16 Oct -2.3 10:33:42 10° SSW 10:36:48 37° SE 10:39:54 10° ENE visible
17 Oct -1.4 09:45:55 10° S 09:48:35 22° SE 09:51:14 10° E visible
18 Oct -1.0 08:59:34 12° SE 09:00:21 13° SE 09:02:00 10° E visible
18 Oct -3.8 10:33:21 10° WSW 10:36:40 79° NNW 10:40:01 10° NE visible
19 Oct -3.4 09:46:41 28° SW 09:48:14 61° SE 09:51:32 10° ENE visible
